GFSFLT1_prec_precacc6_114.txt.gz
Total_Precipitation_Accumulation
0.00 0.00 0.00 0.00 0.00 0.00 0.00 0.00 0.00 0.00 0.00 0.01 0.00 0.00 0.00 0.00 0.00 0.00 0.00 0.00 0.00 0.00 0.00 0.00 0.00 0.00 0.00 0.00 0.00 0.00 0.00 0.01
0.00 0.00 0.00 0.00 0.00 0.00 0.00 0.00 0.00 0.00 0.00 0.00 0.00 0.00 0.00 0.00 0.00 0.00 0.00 0.00 0.00 0.00 0.00 0.00 0.00 0.00 0.00 0.00 0.00 0.01 0.01 0.02
0.00 0.00 0.00 0.00 0.00 0.00 0.00 0.00 0.00 0.00 0.00 0.02 0.01 0.00 0.00 0.00 0.00 0.00 0.00 0.00 0.00 0.00 0.00 0.00 0.00 0.00 0.00 0.00 0.01 0.01 0.01 0.03
0.00 0.00 0.00 0.00 0.00 0.00 0.00 0.00 0.00 0.02 0.03 0.03 0.03 0.02 0.02 0.02 0.00 0.00 0.00 0.00 0.00 0.00 0.00 0.00 0.00 0.00 0.00 0.01 0.01 0.01 0.02 0.02
0.00 0.00 0.00 0.00 0.00 0.00 0.00 0.00 0.00 0.00 0.05 0.04 0.05 0.02 0.00 0.00 0.00 0.00 0.00 0.00 0.00 0.00 0.00 0.00 0.00 0.00 0.01 0.01 0.01 0.02 0.03 0.02
0.00 0.00 0.00 0.00 0.00 0.00 0.00 0.00 0.01 0.01 0.02 0.05 0.09 0.05 0.06 0.02 0.03 0.02 0.03 0.01 0.00 0.00 0.00 0.00 0.00 0.00 0.00 0.01 0.01 0.03 0.04 0.03
0.00 0.00 0.00 0.00 0.00 0.00 0.00 0.00 0.01 0.03 0.05 0.06 0.02 0.01 0.01 0.01 0.01 0.01 0.01 0.01 0.00 0.00 0.00 0.01 0.00 0.00 0.00 0.01 0.01 0.02 0.04 0.04
0.00 0.00 0.00 0.00 0.00 0.00 0.00 0.00 0.00 0.00 0.02 0.04 0.06 0.07 0.02 0.01 0.01 0.00 0.00 0.00 0.00 0.00 0.00 0.00 0.01 0.01 0.01 0.01 0.01 0.02 0.04 0.05
0.01 0.00 0.00 0.00 0.00 0.00 0.00 0.00 0.00 0.00 0.01 0.03 0.04 0.04 0.02 0.03 0.00 0.00 0.01 0.00 0.00 0.00 0.00 0.00 0.00 0.00 0.01 0.01 0.02 0.02 0.03 0.10
0.02 0.01 0.00 0.00 0.00 0.00 0.00 0.00 0.00 0.00 0.00 0.01 0.01 0.00 0.01 0.02 0.05 0.08 0.07 0.06 0.04 0.04 0.02 0.00 0.00 0.00 0.01 0.01 0.02 0.02 0.02 0.07
0.02 0.02 0.01 0.00 0.00 0.00 0.00 0.00 0.00 0.00 0.00 0.00 0.00 0.00 0.01 0.03 0.04 0.02 0.05 0.07 0.07 0.05 0.03 0.02 0.00 0.00 0.01 0.01 0.01 0.02 0.03 0.03
0.09 0.05 0.05 0.01 0.00 0.00 0.00 0.00 0.00 0.00 0.01 0.01 0.00 0.00 0.01 0.03 0.04 0.05 0.05 0.06 0.06 0.04 0.04 0.02 0.01 0.01 0.00 0.01 0.01 0.02 0.02 0.02
0.19 0.14 0.08 0.07 0.01 0.00 0.00 0.00 0.00 0.01 0.02 0.03 0.03 0.03 0.03 0.04 0.05 0.05 0.06 0.08 0.10 0.10 0.08 0.03 0.02 0.03 0.03 0.01 0.01 0.01 0.01 0.02
0.10 0.14 0.05 0.01 0.00 0.00 0.00 0.00 0.01 0.01 0.02 0.04 0.07 0.05 0.04 0.04 0.07 0.09 0.09 0.10 0.09 0.09 0.07 0.05 0.04 0.04 0.05 0.02 0.01 0.01 0.00 0.01
0.00 0.01 0.00 0.00 0.00 0.00 0.00 0.00 0.01 0.03 0.01 0.02 0.03 0.05 0.05 0.05 0.06 0.06 0.08 0.10 0.08 0.07 0.08 0.08 0.07 0.03 0.01 0.01 0.00 0.01 0.01 0.00
0.00 0.00 0.00 0.00 0.00 0.00 0.00 0.00 0.00 0.01 0.01 0.00 0.01 0.02 0.03 0.04 0.06 0.09 0.07 0.08 0.07 0.07 0.09 0.08 0.08 0.09 0.08 0.03 0.01 0.00 0.01 0.00
0.00 0.00 0.00 0.00 0.00 0.00 0.00 0.00 0.00 0.00 0.01 0.01 0.01 0.04 0.04 0.03 0.03 0.11 0.19 0.18 0.21 0.19 0.13 0.15 0.15 0.12 0.17 0.13 0.03 0.01 0.02 0.03
0.01 0.01 0.01 0.01 0.00 0.00 0.00 0.00 0.00 0.00 0.00 0.00 0.00 0.01 0.06 0.09 0.10 0.25 0.34 0.38 0.42 0.39 0.41 0.37 0.25 0.15 0.16 0.18 0.09 0.02 0.04 0.05
0.01 0.01 0.01 0.01 0.00 0.00 0.00 0.00 0.00 0.00 0.00 0.00 0.00 0.00 0.01 0.04 0.05 0.15 0.46 0.76 0.66 0.48 0.46 0.44 0.44 0.34 0.19 0.16 0.09 0.02 0.03 0.05

GFSFLT1_prec_precacc6_117.txt.gz
Total_Precipitation_Accumulation
0.00 0.00 0.00 0.00 0.00 0.00 0.00 0.00 0.00 0.00 0.00 0.01 0.00 0.00 0.00 0.00 0.00 0.00 0.00 0.00 0.00 0.00 0.00 0.00 0.00 0.00 0.00 0.00 0.00 0.00 0.00 0.00
0.00 0.00 0.00 0.00 0.00 0.00 0.00 0.00 0.00 0.00 0.00 0.00 0.00 0.01 0.00 0.00 0.00 0.00 0.00 0.00 0.00 0.00 0.00 0.00 0.00 0.00 0.00 0.00 0.00 0.00 0.00 0.00
0.00 0.00 0.00 0.00 0.00 0.00 0.00 0.01 0.00 0.00 0.00 0.09 0.07 0.04 0.00 0.00 0.00 0.00 0.00 0.00 0.00 0.00 0.00 0.00 0.00 0.00 0.00 0.00 0.00 0.00 0.00 0.01
0.00 0.00 0.00 0.00 0.00 0.00 0.00 0.00 0.01 0.07 0.15 0.14 0.09 0.03 0.01 0.00 0.00 0.00 0.00 0.00 0.00 0.00 0.00 0.00 0.00 0.00 0.00 0.00 0.00 0.00 0.01 0.01
0.00 0.00 0.00 0.00 0.00 0.00 0.00 0.00 0.03 0.12 0.19 0.03 0.07 0.04 0.01 0.00 0.00 0.00 0.00 0.00 0.00 0.00 0.00 0.00 0.00 0.00 0.00 0.00 0.01 0.01 0.02 0.02
0.01 0.00 0.00 0.00 0.00 0.00 0.00 0.00 0.00 0.02 0.02 0.01 0.01 0.03 0.05 0.01 0.01 0.01 0.03 0.02 0.00 0.00 0.00 0.00 0.00 0.00 0.00 0.00 0.00 0.01 0.02 0.02
0.02 0.00 0.00 0.00 0.00 0.00 0.00 0.00 0.00 0.00 0.02 0.03 0.02 0.01 0.01 0.01 0.00 0.01 0.01 0.01 0.00 0.00 0.00 0.00 0.00 0.00 0.00 0.00 0.01 0.01 0.02 0.02
0.04 0.01 0.00 0.00 0.00 0.00 0.00 0.00 0.00 0.00 0.02 0.03 0.03 0.02 0.01 0.01 0.01 0.00 0.00 0.00 0.00 0.00 0.00 0.00 0.00 0.01 0.01 0.01 0.01 0.01 0.02 0.02
0.04 0.02 0.00 0.00 0.00 0.00 0.00 0.00 0.00 0.00 0.01 0.03 0.02 0.02 0.02 0.02 0.01 0.02 0.05 0.02 0.01 0.01 0.00 0.01 0.01 0.01 0.01 0.01 0.02 0.02 0.02 0.02
0.03 0.02 0.01 0.01 0.00 0.00 0.00 0.00 0.00 0.00 0.00 0.02 0.02 0.02 0.01 0.04 0.07 0.13 0.09 0.10 0.09 0.10 0.09 0.02 0.01 0.01 0.01 0.01 0.02 0.02 0.02 0.02
0.04 0.03 0.02 0.01 0.01 0.00 0.00 0.00 0.00 0.00 0.00 0.00 0.00 0.01 0.02 0.05 0.10 0.08 0.12 0.11 0.15 0.17 0.16 0.08 0.03 0.04 0.02 0.01 0.01 0.01 0.01 0.02
0.15 0.06 0.06 0.02 0.00 0.01 0.00 0.00 0.00 0.00 0.00 0.00 0.00 0.00 0.00 0.01 0.01 0.03 0.06 0.08 0.13 0.11 0.17 0.13 0.09 0.06 0.02 0.02 0.02 0.01 0.01 0.01
0.34 0.21 0.10 0.09 0.04 0.00 0.00 0.00 0.00 0.00 0.00 0.00 0.00 0.00 0.00 0.00 0.01 0.01 0.01 0.02 0.06 0.12 0.15 0.13 0.10 0.08 0.07 0.04 0.02 0.01 0.01 0.00
0.46 0.37 0.17 0.07 0.07 0.03 0.00 0.00 0.00 0.00 0.00 0.00 0.01 0.01 0.01 0.01 0.02 0.02 0.03 0.05 0.05 0.06 0.08 0.07 0.05 0.08 0.09 0.05 0.02 0.01 0.00 0.01
0.22 0.15 0.17 0.06 0.03 0.03 0.01 0.00 0.00 0.00 0.00 0.00 0.00 0.02 0.03 0.04 0.04 0.03 0.04 0.06 0.08 0.08 0.09 0.10 0.08 0.07 0.06 0.06 0.04 0.02 0.02 0.02
0.03 0.03 0.02 0.01 0.00 0.00 0.00 0.00 0.00 0.00 0.00 0.00 0.00 0.00 0.01 0.02 0.02 0.03 0.02 0.03 0.06 0.08 0.09 0.11 0.12 0.16 0.17 0.14 0.11 0.10 0.05 0.01
0.01 0.00 0.00 0.00 0.00 0.00 0.00 0.00 0.00 0.00 0.00 0.00 0.00 0.00 0.00 0.01 0.01 0.00 0.01 0.01 0.02 0.09 0.12 0.15 0.16 0.14 0.27 0.26 0.22 0.20 0.15 0.08
0.02 0.02 0.02 0.02 0.01 0.00 0.00 0.00 0.00 0.00 0.00 0.00 0.00 0.00 0.00 0.00 0.00 0.00 0.01 0.05 0.11 0.18 0.33 0.36 0.24 0.18 0.29 0.30 0.27 0.20 0.19 0.15
0.01 0.02 0.02 0.01 0.00 0.00 0.00 0.00 0.00 0.00 0.00 0.00 0.00 0.00 0.00 0.00 0.00 0.01 0.03 0.04 0.08 0.21 0.36 0.45 0.50 0.47 0.42 0.41 0.47 0.42 0.36 0.23

GFSFLT1_prec_precacc6_123.txt.gz
Total_Precipitation_Accumulation
0.00 0.00 0.00 0.00 0.00 0.00 0.00 0.00 0.00 0.01 0.05 0.01 0.00 0.00 0.00 0.00 0.00 0.00 0.00 0.00 0.00 0.00 0.00 0.00 0.00 0.01 0.00 0.00 0.00 0.00 0.01 0.01
0.00 0.00 0.00 0.00 0.00 0.00 0.00 0.00 0.00 0.03 0.09 0.05 0.01 0.00 0.00 0.00 0.00 0.00 0.00 0.00 0.00 0.00 0.00 0.00 0.00 0.00 0.00 0.00 0.00 0.00 0.01 0.01
0.00 0.00 0.00 0.00 0.00 0.00 0.00 0.00 0.00 0.00 0.02 0.04 0.03 0.00 0.00 0.00 0.00 0.00 0.00 0.00 0.00 0.00 0.00 0.00 0.00 0.00 0.00 0.00 0.01 0.00 0.01 0.01
0.00 0.00 0.00 0.00 0.00 0.00 0.00 0.00 0.00 0.00 0.00 0.02 0.06 0.01 0.00 0.00 0.00 0.00 0.00 0.00 0.00 0.00 0.00 0.00 0.00 0.00 0.00 0.00 0.00 0.00 0.00 0.00
0.01 0.00 0.00 0.00 0.00 0.00 0.00 0.00 0.01 0.03 0.03 0.02 0.06 0.02 0.00 0.00 0.00 0.00 0.00 0.00 0.00 0.00 0.00 0.00 0.00 0.00 0.00 0.00 0.00 0.00 0.00 0.00
0.03 0.02 0.01 0.00 0.00 0.00 0.00 0.00 0.04 0.10 0.12 0.06 0.10 0.07 0.00 0.00 0.00 0.00 0.00 0.00 0.00 0.00 0.00 0.00 0.00 0.00 0.00 0.00 0.00 0.00 0.00 0.00
0.08 0.09 0.08 0.06 0.04 0.02 0.01 0.01 0.03 0.16 0.21 0.25 0.27 0.32 0.18 0.08 0.01 0.00 0.00 0.00 0.00 0.00 0.00 0.00 0.00 0.00 0.00 0.00 0.00 0.00 0.00 0.01
0.09 0.17 0.25 0.20 0.16 0.13 0.06 0.03 0.08 0.16 0.32 0.39 0.31 0.54 0.72 0.53 0.31 0.11 0.03 0.05 0.01 0.01 0.01 0.00 0.00 0.00 0.00 0.00 0.01 0.01 0.01 0.01
0.21 0.52 0.31 0.23 0.24 0.26 0.17 0.07 0.12 0.16 0.26 0.36 0.39 0.35 0.41 0.47 0.70 0.70 0.10 0.02 0.01 0.03 0.09 0.09 0.07 0.04 0.02 0.02 0.01 0.01 0.02 0.02
0.37 0.38 0.20 0.19 0.38 0.32 0.31 0.17 0.12 0.17 0.17 0.23 0.34 0.28 0.28 0.43 0.24 0.34 0.17 0.05 0.04 0.07 0.14 0.15 0.12 0.17 0.15 0.12 0.03 0.03 0.03 0.04
0.31 0.48 0.18 0.15 0.33 0.13 0.17 0.20 0.13 0.12 0.16 0.16 0.21 0.20 0.21 0.37 0.35 0.18 0.09 0.06 0.07 0.10 0.15 0.16 0.11 0.26 0.37 0.26 0.20 0.18 0.14 0.07
0.25 0.31 0.18 0.11 0.12 0.12 0.16 0.15 0.11 0.06 0.06 0.07 0.09 0.16 0.21 0.38 0.37 0.17 0.11 0.10 0.11 0.14 0.15 0.16 0.07 0.11 0.29 0.28 0.22 0.16 0.14 0.14
0.36 0.25 0.20 0.11 0.08 0.06 0.21 0.29 0.25 0.16 0.03 0.00 0.01 0.03 0.16 0.11 0.11 0.06 0.04 0.07 0.12 0.12 0.07 0.06 0.06 0.06 0.08 0.11 0.13 0.12 0.06 0.04
0.40 0.30 0.23 0.15 0.07 0.05 0.10 0.16 0.27 0.31 0.13 0.02 0.00 0.00 0.02 0.01 0.00 0.00 0.00 0.00 0.01 0.05 0.09 0.08 0.08 0.07 0.07 0.08 0.07 0.07 0.06 0.05
0.39 0.43 0.31 0.24 0.16 0.08 0.04 0.01 0.04 0.06 0.05 0.02 0.01 0.00 0.00 0.00 0.00 0.00 0.00 0.00 0.00 0.00 0.00 0.01 0.04 0.04 0.03 0.04 0.04 0.05 0.06 0.06
0.21 0.28 0.36 0.31 0.17 0.10 0.05 0.01 0.00 0.00 0.00 0.01 0.01 0.00 0.00 0.00 0.00 0.00 0.00 0.00 0.00 0.00 0.02 0.03 0.03 0.02 0.04 0.02 0.02 0.03 0.05 0.10
0.01 0.03 0.09 0.16 0.08 0.03 0.01 0.00 0.00 0.00 0.00 0.00 0.00 0.00 0.00 0.00 0.00 0.00 0.00 0.00 0.00 0.00 0.01 0.02 0.03 0.03 0.09 0.04 0.03 0.04 0.12 0.28
0.01 0.01 0.02 0.02 0.01 0.00 0.00 0.00 0.00 0.00 0.00 0.00 0.00 0.00 0.00 0.00 0.00 0.00 0.00 0.00 0.00 0.00 0.00 0.00 0.00 0.00 0.04 0.01 0.02 0.02 0.04 0.16
0.00 0.01 0.01 0.01 0.01 0.00 0.00 0.00 0.00 0.00 0.00 0.00 0.00 0.00 0.00 0.00 0.00 0.00 0.00 0.01 0.01 0.00 0.00 0.00 0.00 0.00 0.01 0.00 0.01 0.01 0.04 0.10

GFSFLT1_prec_precacc6_126.txt.gz
Total_Precipitation_Accumulation
0.00 0.00 0.00 0.00 0.00 0.00 0.00 0.00 0.00 0.01 0.07 0.09 0.08 0.10 0.12 0.02 0.00 0.00 0.00 0.01 0.00 0.00 0.00 0.00 0.01 0.01 0.00 0.01 0.01 0.01 0.01 0.01
0.00 0.00 0.00 0.00 0.00 0.00 0.00 0.00 0.00 0.02 0.10 0.11 0.12 0.10 0.11 0.05 0.00 0.00 0.00 0.00 0.00 0.00 0.00 0.00 0.00 0.01 0.00 0.00 0.01 0.01 0.01 0.01
0.00 0.00 0.00 0.00 0.00 0.00 0.00 0.00 0.00 0.00 0.02 0.07 0.14 0.17 0.14 0.07 0.00 0.00 0.00 0.00 0.00 0.00 0.00 0.00 0.00 0.00 0.00 0.00 0.00 0.01 0.01 0.01
0.00 0.00 0.00 0.00 0.00 0.00 0.00 0.00 0.00 0.00 0.00 0.03 0.14 0.22 0.20 0.15 0.03 0.00 0.00 0.00 0.00 0.00 0.00 0.00 0.00 0.00 0.00 0.00 0.00 0.00 0.00 0.01
0.01 0.00 0.00 0.00 0.00 0.00 0.00 0.00 0.00 0.01 0.01 0.03 0.14 0.12 0.11 0.08 0.04 0.00 0.02 0.00 0.00 0.00 0.00 0.00 0.00 0.00 0.00 0.00 0.00 0.00 0.00 0.00
0.02 0.01 0.01 0.01 0.00 0.00 0.00 0.00 0.00 0.04 0.09 0.04 0.13 0.18 0.10 0.09 0.04 0.00 0.01 0.00 0.00 0.00 0.00 0.01 0.00 0.00 0.00 0.00 0.00 0.00 0.00 0.00
0.03 0.04 0.04 0.04 0.03 0.02 0.01 0.01 0.02 0.03 0.09 0.15 0.18 0.27 0.30 0.17 0.08 0.01 0.00 0.00 0.00 0.00 0.00 0.01 0.00 0.00 0.00 0.00 0.00 0.00 0.00 0.00
0.03 0.08 0.16 0.14 0.13 0.11 0.07 0.04 0.08 0.09 0.19 0.21 0.27 0.52 0.86 0.89 0.55 0.19 0.07 0.05 0.01 0.01 0.01 0.01 0.01 0.01 0.00 0.00 0.00 0.00 0.01 0.01
0.11 0.38 0.28 0.17 0.23 0.31 0.23 0.13 0.18 0.21 0.26 0.30 0.36 0.39 0.65 1.25 1.40 1.29 0.77 0.26 0.13 0.03 0.04 0.02 0.02 0.02 0.05 0.05 0.03 0.03 0.02 0.02
0.31 0.40 0.20 0.18 0.63 0.92 0.45 0.33 0.27 0.28 0.26 0.27 0.37 0.39 0.53 0.88 1.05 1.27 1.21 1.16 0.50 0.16 0.13 0.08 0.07 0.15 0.20 0.18 0.07 0.08 0.07 0.05
0.33 0.63 0.22 0.23 0.99 0.76 0.45 0.45 0.35 0.32 0.28 0.24 0.25 0.27 0.40 0.65 0.91 1.59 0.76 0.46 0.96 0.49 0.24 0.21 0.18 0.15 0.20 0.15 0.16 0.16 0.16 0.12
0.19 0.49 0.33 0.25 0.53 0.80 0.56 0.44 0.45 0.33 0.20 0.26 0.22 0.28 0.38 0.51 0.51 0.70 1.14 0.44 0.16 0.16 0.16 0.20 0.17 0.11 0.16 0.19 0.20 0.19 0.19 0.19
0.21 0.25 0.40 0.32 0.24 0.30 0.51 0.50 0.40 0.41 0.15 0.23 0.24 0.23 0.37 0.37 0.35 0.34 0.31 0.37 0.32 0.16 0.13 0.11 0.09 0.05 0.09 0.10 0.14 0.16 0.14 0.11
0.25 0.17 0.15 0.36 0.20 0.40 0.53 0.33 0.35 0.41 0.21 0.24 0.26 0.33 0.14 0.27 0.30 0.21 0.14 0.16 0.17 0.12 0.14 0.12 0.08 0.07 0.07 0.08 0.06 0.08 0.11 0.10
0.26 0.31 0.23 0.24 0.18 0.31 0.17 0.09 0.09 0.16 0.28 0.30 0.37 0.26 0.19 0.18 0.25 0.24 0.17 0.10 0.08 0.06 0.04 0.06 0.07 0.07 0.07 0.06 0.06 0.06 0.08 0.09
0.12 0.20 0.23 0.23 0.17 0.16 0.11 0.03 0.01 0.03 0.07 0.10 0.18 0.23 0.16 0.16 0.16 0.14 0.13 0.10 0.05 0.03 0.03 0.02 0.02 0.03 0.04 0.03 0.02 0.03 0.04 0.06
0.01 0.03 0.08 0.12 0.05 0.02 0.01 0.00 0.00 0.00 0.00 0.01 0.02 0.03 0.02 0.02 0.03 0.02 0.01 0.02 0.02 0.01 0.00 0.00 0.00 0.00 0.02 0.01 0.02 0.03 0.04 0.04
0.00 0.01 0.01 0.02 0.01 0.00 0.00 0.00 0.00 0.00 0.00 0.00 0.00 0.00 0.00 0.00 0.00 0.00 0.00 0.00 0.00 0.00 0.00 0.00 0.00 0.00 0.01 0.01 0.01 0.01 0.02 0.04
0.00 0.00 0.00 0.00 0.00 0.00 0.00 0.00 0.00 0.00 0.00 0.00 0.00 0.00 0.00 0.00 0.00 0.00 0.00 0.00 0.00 0.00 0.00 0.00 0.00 0.00 0.00 0.00 0.00 0.00 0.00 0.01

GFSFLT1_prec_precacc6_132.txt.gz
Total_Precipitation_Accumulation
0.00 0.00 0.00 0.00 0.00 0.00 0.00 0.00 0.00 0.00 0.00 0.00 0.00 0.01 0.09 0.24 0.17 0.17 0.16 0.26 0.23 0.08 0.01 0.00 0.01 0.01 0.01 0.00 0.00 0.00 0.00 0.00
0.00 0.00 0.00 0.00 0.00 0.00 0.00 0.00 0.00 0.00 0.00 0.00 0.00 0.01 0.02 0.11 0.15 0.14 0.22 0.32 0.37 0.21 0.05 0.01 0.02 0.00 0.00 0.00 0.01 0.01 0.01 0.01
0.00 0.00 0.00 0.00 0.00 0.00 0.00 0.00 0.00 0.00 0.00 0.00 0.00 0.01 0.03 0.09 0.18 0.17 0.25 0.30 0.35 0.31 0.14 0.04 0.01 0.00 0.00 0.00 0.00 0.00 0.01 0.02
0.00 0.00 0.00 0.00 0.00 0.00 0.00 0.00 0.00 0.00 0.00 0.00 0.00 0.00 0.01 0.05 0.16 0.16 0.22 0.30 0.29 0.28 0.26 0.11 0.05 0.02 0.00 0.00 0.00 0.00 0.00 0.01
0.00 0.00 0.00 0.00 0.00 0.00 0.00 0.00 0.00 0.00 0.00 0.00 0.00 0.00 0.00 0.02 0.09 0.13 0.19 0.30 0.29 0.26 0.22 0.17 0.07 0.02 0.00 0.00 0.00 0.00 0.00 0.00
0.00 0.00 0.00 0.00 0.00 0.00 0.00 0.00 0.00 0.00 0.00 0.00 0.00 0.00 0.00 0.00 0.06 0.14 0.16 0.25 0.28 0.32 0.37 0.19 0.08 0.04 0.01 0.00 0.00 0.00 0.00 0.00
0.00 0.00 0.00 0.00 0.00 0.00 0.00 0.00 0.00 0.00 0.00 0.01 0.01 0.01 0.00 0.00 0.02 0.12 0.19 0.29 0.25 0.37 0.48 0.63 0.30 0.05 0.01 0.00 0.00 0.00 0.00 0.00
0.00 0.00 0.00 0.00 0.00 0.01 0.01 0.00 0.00 0.00 0.00 0.00 0.01 0.01 0.01 0.01 0.03 0.12 0.29 0.39 0.33 0.32 0.49 0.78 0.48 0.13 0.02 0.02 0.01 0.00 0.00 0.00
0.00 0.00 0.01 0.02 0.03 0.03 0.03 0.03 0.02 0.01 0.00 0.01 0.02 0.01 0.01 0.03 0.15 0.40 0.42 0.61 0.57 0.56 0.60 0.62 0.69 0.34 0.05 0.02 0.01 0.01 0.01 0.01
0.00 0.01 0.02 0.03 0.06 0.09 0.09 0.09 0.05 0.02 0.02 0.03 0.06 0.03 0.01 0.07 0.43 0.44 1.28 1.14 1.10 1.08 0.95 0.76 0.57 0.45 0.13 0.08 0.05 0.06 0.05 0.03
0.00 0.01 0.03 0.03 0.15 0.20 0.16 0.15 0.21 0.16 0.10 0.10 0.12 0.10 0.04 0.10 0.17 0.39 1.15 1.79 1.74 1.68 1.42 1.22 1.13 0.94 0.43 0.11 0.08 0.07 0.07 0.06
0.01 0.01 0.05 0.07 0.10 0.24 0.44 0.36 0.62 0.60 0.34 0.26 0.21 0.26 0.13 0.13 0.26 0.24 0.51 1.07 1.32 2.12 2.27 1.79 1.69 1.18 0.64 0.37 0.23 0.12 0.07 0.07
0.02 0.03 0.05 0.16 0.16 0.21 0.58 0.67 1.03 1.01 0.95 0.75 0.38 0.31 0.30 0.24 0.31 0.43 0.38 0.52 0.85 1.07 1.62 2.10 1.73 1.58 0.91 0.47 0.32 0.30 0.33 0.31
0.01 0.02 0.02 0.09 0.16 0.42 0.33 0.63 0.52 0.80 1.26 1.33 0.60 0.45 0.31 0.16 0.27 0.48 0.44 0.33 0.34 0.62 0.93 1.21 1.34 1.64 1.35 0.69 0.45 0.30 0.32 0.43
0.02 0.03 0.03 0.03 0.06 0.17 0.16 0.19 0.33 0.50 0.58 0.84 0.74 0.45 0.40 0.30 0.10 0.25 0.36 0.36 0.41 0.40 0.51 0.80 1.01 0.88 0.91 0.95 0.97 0.70 0.26 0.22
0.00 0.00 0.00 0.01 0.01 0.02 0.03 0.02 0.02 0.07 0.14 0.15 0.40 0.66 0.40 0.29 0.18 0.12 0.18 0.23 0.32 0.39 0.41 0.46 0.61 0.80 0.71 0.62 0.66 0.62 0.36 0.26
0.00 0.00 0.00 0.00 0.00 0.00 0.00 0.00 0.00 0.00 0.00 0.01 0.02 0.07 0.16 0.29 0.29 0.18 0.13 0.14 0.14 0.20 0.27 0.30 0.30 0.32 0.46 0.54 0.50 0.45 0.37 0.30
0.00 0.00 0.00 0.00 0.00 0.00 0.00 0.00 0.00 0.00 0.00 0.00 0.00 0.00 0.00 0.00 0.02 0.03 0.07 0.10 0.13 0.13 0.16 0.16 0.13 0.14 0.12 0.15 0.22 0.19 0.15 0.13
0.00 0.00 0.00 0.00 0.00 0.00 0.00 0.00 0.00 0.00 0.00 0.00 0.00 0.00 0.00 0.00 0.00 0.00 0.00 0.00 0.00 0.00 0.00 0.00 0.00 0.01 0.01 0.00 0.00 0.00 0.00 0.00

GFSFLT1_prec_precacc6_138.txt.gz
Total_Precipitation_Accumulation
0.00 0.00 0.00 0.00 0.00 0.00 0.00 0.00 0.00 0.00 0.00 0.00 0.00 0.00 0.00 0.00 0.00 0.00 0.00 0.01 0.11 0.23 0.26 0.29 0.26 0.16 0.10 0.07 0.07 0.06 0.02 0.01
0.00 0.00 0.00 0.00 0.00 0.00 0.00 0.00 0.00 0.00 0.00 0.00 0.00 0.00 0.00 0.00 0.00 0.00 0.00 0.00 0.03 0.17 0.31 0.37 0.41 0.43 0.29 0.10 0.11 0.09 0.04 0.07
0.00 0.00 0.00 0.00 0.00 0.00 0.00 0.00 0.00 0.00 0.00 0.00 0.00 0.00 0.00 0.00 0.00 0.00 0.00 0.00 0.03 0.09 0.23 0.32 0.40 0.59 0.71 0.44 0.09 0.04 0.05 0.13
0.00 0.00 0.00 0.00 0.00 0.00 0.00 0.00 0.00 0.00 0.00 0.00 0.00 0.00 0.00 0.00 0.00 0.00 0.00 0.00 0.03 0.05 0.14 0.26 0.43 0.65 0.79 0.65 0.21 0.07 0.03 0.10
0.00 0.00 0.00 0.00 0.00 0.00 0.00 0.00 0.00 0.00 0.00 0.00 0.00 0.01 0.00 0.00 0.00 0.00 0.00 0.00 0.01 0.02 0.07 0.34 0.44 0.71 0.94 0.82 0.65 0.27 0.17 0.10
0.00 0.00 0.00 0.00 0.00 0.00 0.00 0.00 0.00 0.00 0.00 0.00 0.00 0.01 0.01 0.01 0.00 0.00 0.00 0.00 0.00 0.00 0.02 0.10 0.57 0.90 0.97 1.01 1.09 0.71 0.25 0.17
0.00 0.00 0.00 0.00 0.00 0.00 0.00 0.00 0.00 0.00 0.00 0.00 0.01 0.02 0.02 0.02 0.01 0.00 0.00 0.00 0.00 0.00 0.01 0.06 0.30 0.62 0.92 0.95 1.05 0.90 0.56 0.29
0.00 0.00 0.00 0.00 0.00 0.00 0.00 0.00 0.00 0.00 0.00 0.00 0.01 0.02 0.03 0.03 0.03 0.02 0.01 0.01 0.00 0.00 0.00 0.03 0.46 0.62 0.78 0.85 0.82 1.05 0.75 0.41
0.00 0.00 0.00 0.00 0.00 0.00 0.00 0.00 0.01 0.00 0.00 0.00 0.00 0.01 0.02 0.02 0.03 0.04 0.03 0.02 0.01 0.00 0.00 0.00 0.06 0.27 0.61 0.66 0.80 0.80 0.85 0.81
0.00 0.00 0.00 0.00 0.00 0.00 0.02 0.02 0.02 0.01 0.01 0.01 0.01 0.01 0.01 0.02 0.02 0.05 0.04 0.04 0.03 0.01 0.00 0.00 0.01 0.11 0.44 0.55 0.55 0.63 0.61 0.56
0.00 0.00 0.00 0.00 0.00 0.00 0.00 0.01 0.02 0.01 0.01 0.02 0.03 0.02 0.03 0.04 0.04 0.04 0.06 0.07 0.06 0.05 0.02 0.00 0.00 0.11 0.34 0.44 0.43 0.53 0.58 0.49
0.00 0.00 0.00 0.00 0.00 0.00 0.00 0.00 0.01 0.03 0.03 0.04 0.04 0.05 0.05 0.05 0.06 0.11 0.15 0.14 0.11 0.06 0.02 0.01 0.00 0.05 0.32 0.53 0.42 0.34 0.41 0.60
0.00 0.00 0.00 0.00 0.00 0.00 0.00 0.00 0.02 0.08 0.11 0.08 0.08 0.15 0.15 0.11 0.17 0.15 0.19 0.14 0.08 0.04 0.02 0.00 0.00 0.05 0.26 0.44 0.51 0.58 0.54 0.49
0.00 0.00 0.00 0.00 0.00 0.00 0.00 0.00 0.01 0.05 0.20 0.26 0.20 0.30 0.26 0.45 0.51 0.40 0.31 0.25 0.20 0.10 0.06 0.03 0.03 0.06 0.17 0.59 0.61 0.50 0.48 0.40
0.00 0.00 0.00 0.00 0.00 0.00 0.00 0.00 0.00 0.02 0.09 0.32 0.45 0.68 0.93 0.76 0.68 0.72 0.72 0.40 0.36 0.21 0.08 0.04 0.09 0.28 0.53 0.64 0.72 0.69 0.80 0.64
0.00 0.00 0.00 0.00 0.00 0.00 0.00 0.00 0.00 0.00 0.00 0.04 0.24 0.65 0.88 0.94 1.02 1.19 1.02 0.87 0.85 0.44 0.26 0.11 0.07 0.18 0.45 0.65 0.69 0.86 1.09 1.18
0.00 0.00 0.00 0.00 0.00 0.00 0.00 0.00 0.00 0.00 0.00 0.00 0.00 0.02 0.13 0.28 0.40 0.43 0.32 0.66 0.92 0.55 0.51 0.16 0.10 0.16 0.28 0.43 0.57 0.62 0.60 0.72
0.00 0.00 0.00 0.00 0.00 0.00 0.00 0.00 0.00 0.00 0.00 0.00 0.00 0.00 0.00 0.00 0.04 0.05 0.08 0.03 0.06 0.09 0.10 0.07 0.06 0.12 0.11 0.14 0.28 0.48 0.59 0.65
0.00 0.00 0.00 0.00 0.00 0.00 0.00 0.00 0.00 0.00 0.00 0.00 0.00 0.00 0.00 0.00 0.00 0.00 0.00 0.00 0.00 0.01 0.02 0.02 0.02 0.02 0.01 0.01 0.02 0.05 0.09 0.13